Home > Weather > Reston > Past weeks

Flag for U.S.A. Weather for the Past 2 Weeks in Reston, Virginia, U.S.A.

Now
41 °F

Mostly cloudy.


Feels Like: 36 °F
Forecast: 33 / 38 °F
Wind: 8 mph from Southeast

Location: Washington-Dulles International Airport

Current Time: Feb 8, 2016 at 9:08:30 PM

Latest Report: Feb 8, 2016 at 7:52 PM


Visibility: 10 mi

Pressure: 29.69 "Hg

Humidity: 60%

Dew point: 28 °F

Location of RestonLocation

Historic Weather in Reston — Graph

°F

Reston Temperature Yesterday

Maximum temperature yesterday: 45 °F (at 2:52 PM)
Minimum temperature yesterday: 24 °F (at 4:52 AM)
Average temperature yesterday: 34 °F

High & Low Weather Summary for the Past Weeks

 TemperatureHumidityPressure
High58 °F (Jan 31, 2:52 PM)100% (Feb 3, 10:52 AM)30.46 "Hg (Feb 3, 10:52 AM)
Low5 °F (Jan 25, 4:52 AM)34% (Jan 30, 2:52 PM)29.57 "Hg (Jan 29, 4:52 AM)
Average37 °F66%30.05 "Hg
* Reported Jan 24 7:52 PM — Feb 8 7:52 PM, Reston, Weather by CustomWeather, © 2016

Note: Actual official high and low records may vary slightly from our data, if they occured in-between our weather recording intervals... More about our weather records

Advertising

Reston Weather History for the Previous 24 Hours

 ConditionsComfort  
Time TempWeatherWind HumidityBarometerVisibility
7:52 PM
Mon, Feb 8
41 °FMostly cloudy.8 mph60%29.69 "Hg10 mi
6:52 PM42 °FMostly cloudy.10 mph53%29.70 "Hg10 mi
5:52 PM42 °FMostly cloudy.6 mph51%29.68 "Hg10 mi
4:52 PM44 °FMostly cloudy.8 mph49%29.67 "Hg10 mi
3:52 PM44 °FPartly sunny.6 mph45%29.67 "Hg10 mi
2:52 PM46 °FMostly cloudy.5 mph44%29.67 "Hg10 mi
1:52 PM46 °FPartly sunny.7 mph44%29.69 "Hg10 mi
12:52 PM45 °FPartly sunny.7 mph45%29.71 "Hg10 mi
11:52 AM45 °FPartly sunny.6 mph48%29.75 "Hg10 mi
10:52 AM42 °FScattered clouds.3 mph47%29.78 "Hg10 mi
9:52 AM39 °FBroken clouds.10 mph46%29.79 "Hg10 mi
8:52 AM38 °FBroken clouds.7 mph55%29.80 "Hg10 mi
7:52 AM27 °FScattered clouds.No wind81%29.82 "Hg10 mi
6:52 AM27 °FClear.3 mph75%29.82 "Hg10 mi
5:52 AM26 °FPassing clouds.No wind77%29.80 "Hg10 mi
4:52 AM28 °FPassing clouds.No wind72%29.79 "Hg10 mi
3:52 AM32 °FPassing clouds.6 mph64%29.78 "Hg10 mi
2:52 AM33 °FPassing clouds.7 mph61%29.78 "Hg10 mi
1:52 AM33 °FPassing clouds.6 mph61%29.82 "Hg10 mi
12:52 AM34 °FPassing clouds.7 mph61%29.84 "Hg10 mi
11:52 PM
Sun, Feb 7
34 °FPassing clouds.6 mph61%29.86 "Hg10 mi
10:52 PM36 °FPassing clouds.6 mph59%29.89 "Hg10 mi
9:52 PM37 °FPassing clouds.7 mph54%29.91 "Hg10 mi
Weather by CustomWeather, © 2016

See weather overviewHow to use our weather pages